Вернуться в каталог

CZ-6A DEB

АктивенSSO
NORAD 54407·DEBRIS·🇨🇳 China

Запущен Nov 11, 2022 с Taiyuan Satellite Launch Center

Loading…

Ближайшие Пролёты (ближайшие 24 часа)

TLE

СвежийSource: Space-Track

Эпоха: Sep 13, 2026, 23:39 UTC

1 54407U 22151EF  26256.98542438  .00001394  00000-0  64524-3 0  9996
2 54407  98.7732 264.1670 0044385  74.3917 286.2152 14.21940796198310

Отслеживайте CZ-6A DEB в реальном времени с AllMySat

Download on the App Store